Weather History for Asheville, NC

Change the Weather History Date:

Saturday, March 8, 2008

  Actual Average Record
Temperature  
Mean Temperature 40 °F 45 °F  
Max Temperature 55 °F 56 °F 81 °F (1974)
Min Temperature 25 °F 34 °F 8 °F (1920)
Degree Days  
Heating Degree Days 25 20  
Month to date heating degree days 158 166  
Since 1 July heating degree days 3141 3383  
Cooling Degree Days 0 0  
Month to date cooling degree days 0 0  
Year to date cooling degree days 0 0  
Moisture  
Dew Point 32 °F    
Average Humidity 74    
Maximum Humidity 100    
Minimum Humidity 47    
Precipitation  
Precipitation 0.10 in 0.13 in 1.40 in (1998)
Month to date precipitation 2.39 0.99  
Year to date precipitation 8.74 8.42  
Snow  
Snow T in 0.00 in 3.10 in (1991)
Month to date snowfall T 0.5  
Since 1 July snowfall 3.8 7.8  
Snow Depth -    
Sea Level Pressure  
Sea Level Pressure 29.67 in    
Wind  
Wind Speed 15 mph (SSW)    
Max Wind Speed 26 mph    
Max Gust Speed 39 mph    
Visibility 9 miles    
Events Rain    
T = Trace of Precipitation, MM = Missing Value Source: NWS Daily Summary

Daily Weather History Graph

Daily Weather History Graph

Search for Another Location

Airport:

Trip Planner

Search our weather history database for the weather conditions in past years. The results will help you decide how hot, cold, wet, or windy it might be!

Date:

Astronomy

Mar. 08, 2008 Rise Set
Actual Time 6:49 AM EST 6:32 PM EST
Civil Twilight 6:24 AM EST 6:57 PM EST
Nautical Twilight 5:55 AM EST 7:27 PM EST
Astronomical Twilight 5:25 AM EST 7:56 PM EST
Moon 7:10 AM EST (3/8) 7:55 PM EST (3/8)
Length of Visible Light 12h 33m
Length of Day
11h 42m
New Moon, 1% of the Moon is Illuminated
Mar 8
New Moon
Mar 14
First Quarter
Mar 21
Full
Mar 29
Last Quarter
Apr 5
New

Hourly Weather History & Observations

Time (EST) Temp. Windchill Dew Point Humidity Pressure Visibility Wind Dir Wind Speed Gust Speed Precip Events Conditions
12:33 AM 48.2 °F - 48.2 °F 100% 29.57 in 2.5 mi SSE 9.2 mph - 0.01 in Rain Light Rain
12:44 AM 48.2 °F - 48.2 °F 100% 29.56 in 3.0 mi SSE 8.1 mph - 0.01 in Rain Light Rain
12:54 AM 48.0 °F - 48.0 °F 100% 29.54 in 4.0 mi South 10.4 mph - 0.02 in Rain Light Rain
1:24 AM 50.0 °F - 48.2 °F 94% 29.55 in 10.0 mi SE 10.4 mph - 0.00 in Rain Light Rain
1:37 AM 50.0 °F - 50.0 °F 100% 29.55 in 10.0 mi SSE 10.4 mph - 0.00 in Rain Light Rain
1:54 AM 51.1 °F - 50.0 °F 96% 29.51 in 10.0 mi SE 10.4 mph - 0.01 in Rain Light Rain
2:03 AM 51.8 °F - 51.8 °F 100% 29.54 in 10.0 mi SE 11.5 mph - 0.00 in Rain Light Rain
2:54 AM 52.0 °F - 51.1 °F 97% 29.49 in 7.0 mi SE 8.1 mph - 0.02 in Rain Rain
3:54 AM 55.0 °F - 52.0 °F 89% 29.44 in 10.0 mi South 16.1 mph 23.0 mph 0.01 in   Overcast
4:43 AM 53.6 °F - 48.2 °F 82% 29.47 in 10.0 mi South 15.0 mph - 0.03 in   Mostly Cloudy
4:54 AM 53.1 °F - 48.0 °F 83% 29.46 in 10.0 mi SSW 24.2 mph 39.1 mph 0.03 in Rain Light Rain
5:54 AM 50.0 °F - 42.1 °F 74% 29.46 in 10.0 mi SSW 9.2 mph - 0.00 in   Mostly Cloudy
6:54 AM 46.0 °F 39.0 °F 37.0 °F 71% 29.50 in 10.0 mi SSW 17.3 mph 29.9 mph 0.00 in   Mostly Cloudy
7:46 AM 42.8 °F 35.8 °F 35.6 °F 76% 29.51 in 10.0 mi South 13.8 mph 19.6 mph N/A   Mostly Cloudy
7:54 AM 43.0 °F 36.8 °F 36.0 °F 76% 29.50 in 10.0 mi SSW 11.5 mph 21.9 mph N/A   Mostly Cloudy
8:21 AM 42.8 °F 34.8 °F 37.4 °F 81% 29.52 in 10.0 mi South 17.3 mph - N/A   Overcast
8:54 AM 43.0 °F 35.4 °F 36.0 °F 76% 29.51 in 10.0 mi SSW 16.1 mph 19.6 mph N/A   Mostly Cloudy
9:21 AM 42.8 °F 34.8 °F 35.6 °F 76% 29.53 in 10.0 mi SSW 17.3 mph 23.0 mph 0.00 in   Overcast
9:54 AM 44.1 °F 36.2 °F 27.0 °F 51% 29.52 in 10.0 mi SW 18.4 mph 24.2 mph 0.00 in   Mostly Cloudy
10:01 AM 44.6 °F 38.1 °F 28.4 °F 53% 29.54 in 10.0 mi SW 13.8 mph 24.2 mph N/A   Mostly Cloudy
10:54 AM 41.0 °F 33.9 °F 30.9 °F 67% 29.57 in 10.0 mi South 12.7 mph 20.7 mph N/A   Overcast
11:54 AM 37.9 °F 28.2 °F 30.9 °F 76% 29.61 in 10.0 mi North 18.4 mph - 0.01 in Rain Light Rain
12:54 PM 37.0 °F 27.4 °F 19.0 °F 48% 29.68 in 10.0 mi WNW 17.3 mph 28.8 mph N/A   Mostly Cloudy
1:21 PM 35.6 °F 24.5 °F 24.8 °F 65% 29.71 in 10.0 mi North 20.7 mph 26.5 mph N/A   Mostly Cloudy
1:54 PM 33.1 °F 21.2 °F 21.9 °F 64% 29.75 in 10.0 mi NNW 20.7 mph 27.6 mph 0.00 in   Overcast
2:54 PM 35.1 °F 23.8 °F 17.1 °F 48% 29.79 in 10.0 mi NNW 20.7 mph 34.5 mph N/A   Overcast
3:54 PM 34.0 °F 22.4 °F 16.0 °F 48% 29.81 in 10.0 mi North 20.7 mph 26.5 mph N/A   Clear
4:54 PM 32.0 °F 20.8 °F 15.1 °F 50% 29.88 in 10.0 mi North 17.3 mph 27.6 mph N/A   Clear
5:54 PM 30.0 °F 19.1 °F 14.0 °F 51% 29.93 in 10.0 mi North 15.0 mph 21.9 mph N/A   Clear
6:54 PM 28.9 °F 18.6 °F 12.9 °F 51% 29.99 in 10.0 mi North 12.7 mph 18.4 mph N/A   Clear
7:54 PM 27.0 °F 18.0 °F 12.9 °F 56% 30.04 in 10.0 mi North 9.2 mph - N/A   Clear
8:54 PM 27.0 °F 19.5 °F 10.9 °F 51% 30.07 in 10.0 mi North 6.9 mph - N/A   Clear
9:54 PM 25.0 °F 12.6 °F 12.0 °F 58% 30.10 in 10.0 mi NNW 15.0 mph - N/A   Clear
10:54 PM 25.0 °F 14.2 °F 14.0 °F 63% 30.12 in 10.0 mi NNW 11.5 mph - N/A   Clear
11:54 PM 25.0 °F 12.2 °F 16.0 °F 69% 30.14 in 10.0 mi NNW 16.1 mph - N/A   Clear